Flag Weather past 2 weeks in Foochow, Fujian, China

Now
66 °F

Passing clouds.


Feels Like: 66 °F
Forecast: 58 / 74 °F
Wind: No wind

Location: Fuzhou Airport

Current Time: Nov 24, 2014 at 8:49:52 PM

Latest Report: Nov 24, 2014 at 8:00 PM


Visibility: 4 mi

Pressure: 29.95 "Hg

Humidity: 94%

Dew point: 64 °F

Location of FoochowLocation

Historic Weather in Foochow — Graph

°F

Foochow temperature yesterday

Maximum temperature yesterday: 77 °F (at 12:00 PM)
Minimum temperature yesterday: 66 °F (at 1:00 AM)
Average temperature yesterday: 70 °F

Past Weeks' High & Low Weather Summary

 TemperatureHumidityPressure
High79 °F (Nov 24, 11:00 AM)94% (Nov 12, 5:00 AM)30.33 "Hg (Nov 12, 5:00 AM)
Low57 °F (Nov 18, 6:00 AM)49% (Nov 17, 2:00 PM)29.92 "Hg (Nov 24, 3:00 PM)
Average66 °F70%30.15 "Hg
* Reported Nov 9 7:00 PM — Nov 24 7:00 PM, Foochow, Weather by CustomWeather, © 2014

Note: Actual official high and low records may vary slightly from our data, if they occured in-between our weather recording intervals... More about our weather records

Advertising

Foochow weather history for previous 24 hours

 ConditionsComfort  
Time TempWeatherWind HumidityBarometerVisibility
7:00 PM
Nov 24
68 °FClear.1 mph88%29.95 "Hg6 mi
6:00 PM68 °FClear.1 mph88%29.95 "Hg10 mi
5:00 PM70 °FPassing clouds.3 mph83%29.92 "HgN/A
4:00 PM73 °FPassing clouds.3 mph74%29.92 "HgN/A
3:00 PM75 °FPassing clouds.6 mph69%29.92 "HgN/A
2:00 PM79 °FPassing clouds.8 mph61%29.95 "HgN/A
1:00 PM79 °FPassing clouds.10 mph61%29.95 "HgN/A
12:00 PM79 °FScattered clouds.8 mph61%29.98 "HgN/A
11:00 AM79 °FPartly sunny.8 mph61%30.01 "HgN/A
10:00 AM75 °FPartly sunny.3 mph69%30.04 "HgN/A
9:00 AM73 °FPartly sunny.6 mph69%30.04 "HgN/A
8:00 AM70 °FPartly sunny.3 mph78%30.04 "HgN/A
7:00 AM70 °FBroken clouds.6 mph78%30.04 "HgN/A
6:00 AM68 °FPassing clouds.3 mph83%30.01 "HgN/A
5:00 AM70 °FPassing clouds.3 mph83%30.01 "HgN/A
4:00 AM70 °FPassing clouds.3 mph83%30.01 "HgN/A
3:00 AM70 °FPassing clouds.3 mph83%30.01 "HgN/A
2:00 AM70 °FPassing clouds.6 mph88%30.04 "HgN/A
1:00 AM70 °FPassing clouds.6 mph88%30.04 "Hg6 mi
12:00 AM70 °FLow clouds.6 mph88%30.07 "Hg6 mi
11:00 PM
Nov 23
70 °FLow clouds.8 mph88%30.07 "Hg6 mi
10:00 PM68 °FLow clouds.10 mph94%30.07 "Hg6 mi
9:00 PM68 °FPassing clouds.13 mph94%30.07 "Hg6 mi
8:00 PM68 °FPassing clouds.10 mph94%30.07 "HgN/A
Weather by CustomWeather, © 2014

See weather overviewHow to use our weather pages